Plattsmouth, NE

6:43 PM CST on November 13, 2019 (GMT -0600)
Plattsmouth Municipal

Weather History for KPMV - August, 2019

Change the Weather History Date:

Tuesday, August 20, 2019

  Actual Average (KOFF) Record (KOFF)
Temperature  
Mean Temperature 84 °F -  
Max Temperature 92 °F 82 °F 98 °F (2003)
Min Temperature 77 °F 63 °F 49 °F (2012)
Cooling Degree Days 20    
Growing Degree Days 34 (Base 50)    
Moisture  
Dew Point 78 °F    
Average Humidity 82    
Maximum Humidity 97    
Minimum Humidity 63    
Precipitation  
Precipitation 0.00 in - - ()
Sea Level Pressure  
Sea Level Pressure 29.94 in    
Wind  
Wind Speed 6 mph (South)    
Max Wind Speed 17 mph    
Max Gust Speed 25 mph    
Visibility 10 miles    
Events Rain , Thunderstorm    
Averages and records for this station are not official NWS values.
T = Trace of Precipitation, MM = Missing Value Source: NWS Daily Summary

Daily Weather History Graph

Daily Weather History Graph

Search for Another Location

Airport or City:

Astronomy

Aug. 20, 2019 Rise Set
Actual Time 6:38 AM CDT 8:15 PM CDT
Civil Twilight 6:09 AM CDT 8:44 PM CDT
Nautical Twilight 5:34 AM CDT 9:19 PM CDT
Astronomical Twilight 4:56 AM CDT 9:56 PM CDT
Moon 11:01 PM CDT (8/20) 11:19 AM CDT (8/20)
Length of Visible Light 14h 34m
Length of Day
13h 36m
Waning Gibbous, 77% of the Moon is Illuminated
Aug 20
Waning Gibbous
Aug 23
Last Quarter
Aug 30
New
Sep 5
First Quarter
Sep 13
Full

Hourly Weather History & Observations

Time (CDT) Temp. Heat Index Dew Point Humidity Pressure Visibility Wind Dir Wind Speed Gust Speed Precip Events Conditions
12:15 AM 79.9 °F - 77.9 °F 94% 29.94 in 10.0 mi SE 6.9 mph - N/A   Clear
12:35 AM 79.9 °F - 78.3 °F 95% 29.94 in 10.0 mi SE 8.1 mph - N/A   Clear
12:55 AM 80.1 °F 86.4 °F 78.3 °F 94% 29.94 in 10.0 mi SE 6.9 mph - N/A   Clear
1:15 AM 79.7 °F - 78.1 °F 95% 29.94 in 10.0 mi SE 6.9 mph - N/A   Clear
1:35 AM 79.7 °F - 78.4 °F 96% 29.93 in 10.0 mi SE 6.9 mph - N/A   Clear
1:55 AM 79.7 °F - 78.8 °F 97% 29.93 in 10.0 mi SE 9.2 mph - N/A   Clear
2:15 AM 80.1 °F 86.7 °F 78.8 °F 96% 29.91 in 10.0 mi SE 9.2 mph - N/A   Clear
2:35 AM 80.4 °F 87.7 °F 78.8 °F 95% 29.90 in 10.0 mi SSE 9.2 mph - N/A   Clear
2:55 AM 80.6 °F 87.9 °F 78.4 °F 93% 29.88 in 10.0 mi SSE 11.5 mph 17.3 mph N/A   Clear
3:15 AM 80.2 °F 87.0 °F 78.4 °F 94% 29.86 in 10.0 mi South 11.5 mph 16.1 mph N/A   Clear
3:35 AM 80.1 °F 86.4 °F 78.1 °F 94% 29.85 in 10.0 mi South 15.0 mph - N/A   Clear
3:55 AM 79.5 °F - 77.9 °F 95% 29.84 in 10.0 mi South 16.1 mph 20.7 mph N/A   Clear
4:15 AM 79.3 °F - 77.9 °F 95% 29.85 in 10.0 mi South 12.7 mph - N/A   Clear
4:35 AM 79.3 °F - 77.4 °F 94% 29.83 in 10.0 mi South 13.8 mph - N/A   Clear
4:55 AM 79.7 °F - 77.2 °F 92% 29.85 in 10.0 mi South 8.1 mph - N/A   Clear
5:15 AM 79.7 °F - 77.0 °F 91% 29.85 in 10.0 mi South 9.2 mph - N/A   Clear
5:35 AM 79.9 °F - 76.3 °F 89% 29.86 in 10.0 mi SW 5.8 mph - N/A   Clear
5:55 AM 79.9 °F - 76.1 °F 88% 29.86 in 10.0 mi SSW 10.4 mph - N/A   Clear
6:15 AM 80.1 °F 85.2 °F 75.6 °F 86% 29.88 in 10.0 mi Calm Calm - N/A   Clear
6:35 AM 79.2 °F - 76.1 °F 90% 29.91 in 10.0 mi North 3.5 mph - N/A   Clear
6:55 AM 78.8 °F - 76.1 °F 91% 29.90 in 10.0 mi SW 3.5 mph - N/A   Clear
7:15 AM 77.9 °F - 76.1 °F 94% 29.91 in 10.0 mi Calm Calm - N/A   Clear
7:35 AM 78.1 °F - 75.7 °F 92% 29.91 in 10.0 mi Calm Calm - N/A   Clear
7:55 AM 78.3 °F - 76.1 °F 93% 29.91 in 10.0 mi SW 4.6 mph - N/A Thunderstorm Clear
8:15 AM 79.3 °F - 76.3 °F 90% 29.93 in 10.0 mi Calm Calm - N/A   Clear
8:35 AM 81.3 °F 88.0 °F 76.1 °F 84% 29.93 in 10.0 mi Calm Calm - N/A   Clear
8:55 AM 81.7 °F 89.5 °F 77.2 °F 86% 29.95 in 10.0 mi Calm Calm - N/A   Clear
9:15 AM 82.4 °F 91.5 °F 77.7 °F 86% 29.95 in 7.0 mi ENE 3.5 mph - N/A   Clear
9:35 AM 83.3 °F 92.8 °F 77.2 °F 82% 29.94 in 10.0 mi Calm Calm - N/A   Clear
10:00 AM 84.4 °F 94.6 °F 77.2 °F 79% 29.95 in 10.0 mi Calm Calm - N/A   Clear
10:15 AM 84.6 °F 94.7 °F 77.2 °F 78% 29.96 in 10.0 mi Calm Calm - N/A   Clear
10:35 AM 86.0 °F 97.3 °F 77.2 °F 75% 29.96 in 10.0 mi Calm Calm - N/A   Clear
10:55 AM 86.0 °F 96.4 °F 76.5 °F 73% 29.95 in 10.0 mi Calm Calm - N/A   Clear
11:15 AM 86.7 °F 97.3 °F 76.5 °F 71% 29.94 in 10.0 mi WNW 3.5 mph - N/A   Clear
11:35 AM 87.1 °F 98.3 °F 76.8 °F 71% 29.95 in 10.0 mi SSW 4.6 mph - N/A   Clear
11:55 AM 87.8 °F 99.7 °F 77.0 °F 70% 29.94 in 10.0 mi Calm Calm - N/A   Clear
12:15 PM 88.2 °F 101.2 °F 77.7 °F 71% 29.95 in 10.0 mi WSW 3.5 mph - N/A   Clear
12:35 PM 88.5 °F 101.6 °F 77.5 °F 70% 29.95 in 10.0 mi Calm Calm - N/A   Clear
12:55 PM 90.0 °F 105.1 °F 78.4 °F 69% 29.96 in 10.0 mi Calm Calm - N/A   Clear
1:15 PM 89.6 °F 104.7 °F 78.8 °F 70% 29.96 in 10.0 mi ESE 6.9 mph - N/A   Scattered Clouds
1:35 PM 89.8 °F 104.0 °F 78.1 °F 68% 29.96 in 10.0 mi Calm Calm - N/A   Mostly Cloudy
1:55 PM 90.5 °F 104.7 °F 77.7 °F 66% 29.96 in 10.0 mi SE 3.5 mph - N/A   Scattered Clouds
2:15 PM 90.7 °F 105.9 °F 78.3 °F 67% 29.96 in 10.0 mi SE 5.8 mph - N/A   Scattered Clouds
2:35 PM 91.6 °F 107.8 °F 78.6 °F 66% 29.96 in 10.0 mi SSE 8.1 mph - N/A   Clear
2:55 PM 91.6 °F 105.6 °F 77.5 °F 63% 29.96 in 10.0 mi South 5.8 mph - N/A   Scattered Clouds
3:15 PM 90.1 °F 103.7 °F 77.5 °F 66% 29.97 in 10.0 mi SW 3.5 mph - N/A   Scattered Clouds
3:35 PM 91.4 °F 105.1 °F 77.4 °F 63% 29.97 in 10.0 mi SSW 5.8 mph - N/A   Mostly Cloudy
3:55 PM 91.0 °F 106.2 °F 78.3 °F 66% 29.96 in 10.0 mi Calm Calm - N/A   Scattered Clouds
4:15 PM 91.4 °F 107.2 °F 78.4 °F 66% 29.96 in 10.0 mi South 5.8 mph - N/A   Scattered Clouds
4:35 PM 92.1 °F 107.1 °F 78.1 °F 63% 29.95 in 10.0 mi South 3.5 mph - N/A   Scattered Clouds
4:55 PM 91.9 °F 106.6 °F 77.7 °F 63% 29.94 in 10.0 mi South 3.5 mph - N/A   Clear
5:15 PM 91.4 °F 105.8 °F 77.7 °F 64% 29.94 in 10.0 mi SSW 3.5 mph - N/A   Clear
5:35 PM 91.6 °F 106.3 °F 77.9 °F 64% 29.95 in 10.0 mi SSW 3.5 mph - N/A   Clear
5:55 PM 90.7 °F 104.5 °F 77.4 °F 65% 29.96 in 10.0 mi SSW 3.5 mph - N/A   Clear
6:15 PM 91.4 °F 105.1 °F 77.4 °F 63% 29.94 in 10.0 mi Calm Calm - N/A   Clear
6:35 PM 91.0 °F 104.2 °F 77.0 °F 63% 29.94 in 10.0 mi Calm Calm - N/A   Clear
6:55 PM 89.1 °F 103.2 °F 78.1 °F 70% 29.93 in 10.0 mi South 5.8 mph - N/A   Clear
7:15 PM 88.0 °F 105.5 °F 80.8 °F 79% 29.93 in 10.0 mi SE 4.6 mph - N/A   Clear
7:35 PM 87.4 °F 104.4 °F 80.6 °F 80% 29.93 in 10.0 mi ESE 6.9 mph - N/A   Clear
7:55 PM 86.4 °F 102.0 °F 80.4 °F 82% 29.96 in 10.0 mi SW 3.5 mph - N/A   Clear
8:15 PM 85.3 °F 99.5 °F 80.1 °F 84% 29.98 in 10.0 mi SW 3.5 mph - N/A   Clear
8:35 PM 84.2 °F 97.4 °F 80.1 °F 87% 29.98 in 10.0 mi WSW 3.5 mph - N/A   Scattered Clouds
8:55 PM 83.3 °F 95.7 °F 80.1 °F 90% 29.99 in 10.0 mi Calm Calm - N/A   Scattered Clouds
9:15 PM 83.1 °F 95.1 °F 79.9 °F 90% 29.98 in 10.0 mi South 3.5 mph - N/A   Scattered Clouds
9:35 PM 82.4 °F 93.1 °F 79.7 °F 91% 29.99 in 10.0 mi Calm Calm - N/A   Scattered Clouds
9:55 PM 81.1 °F 90.1 °F 79.7 °F 95% 29.99 in 7.0 mi Calm Calm - N/A   Clear
10:15 PM 81.3 °F 90.4 °F 79.3 °F 94% 29.98 in 10.0 mi SE 6.9 mph - N/A   Clear
10:35 PM 82.4 °F 93.1 °F 79.7 °F 91% 29.98 in 10.0 mi South 5.8 mph - N/A   Light Drizzle
10:55 PM 82.4 °F 92.7 °F 79.3 °F 90% 29.96 in 10.0 mi South 17.3 mph 25.3 mph N/A Rain Rain
11:15 PM 84.9 °F 96.1 °F 77.7 °F 79% 30.01 in 10.0 mi WNW 4.6 mph 18.4 mph N/A   Scattered Clouds
11:35 PM 82.2 °F 92.2 °F 79.2 °F 90% 30.02 in 10.0 mi Calm Calm - N/A   Scattered Clouds
11:55 PM 82.0 °F 91.9 °F 79.2 °F 91% 30.02 in 10.0 mi NE 4.6 mph - N/A Rain , Thunderstorm Light Thunderstorms and Rain